Weather History for Freeport, IL

Change the Weather History Date:

Saturday, March 2, 2013

  Actual Average Record
Temperature  
Mean Temperature 16 °F -  
Max Temperature 25 °F 40 °F 66 °F (1992)
Min Temperature 8 °F 20 °F -6 °F (1980)
Degree Days  
Heating Degree Days 48    
Moisture  
Dew Point 10 °F    
Average Humidity 75    
Maximum Humidity 93    
Minimum Humidity 59    
Precipitation  
Precipitation 0.00 in - - ()
Sea Level Pressure  
Sea Level Pressure 30.22 in    
Wind  
Wind Speed 4 mph (NW)    
Max Wind Speed 10 mph    
Max Gust Speed -    
Visibility 10 miles    
Events      
Averages and records for this station are not official NWS values.
T = Trace of Precipitation, MM = Missing Value Source: NWS Daily Summary

Daily Weather History Graph

Daily Weather History Graph

Search for Another Location

Airport:

Trip Planner

Search our weather history database for the weather conditions in past years. The results will help you decide how hot, cold, wet, or windy it might be!

Date:

Astronomy

Mar. 02, 2013 Rise Set
Actual Time 6:31 AM CST 5:49 PM CST
Civil Twilight 6:03 AM CST 6:17 PM CST
Nautical Twilight 5:31 AM CST 6:50 PM CST
Astronomical Twilight 4:58 AM CST 7:22 PM CST
Moon 11:36 PM CST (3/2) 8:53 AM CST (3/2)
Length of Visible Light 12h 14m
Length of Day
11h 18m
Waning Gibbous, 74% of the Moon is Illuminated
Mar 2
Waning Gibbous
Mar 4
Last Quarter
Mar 11
New
Mar 19
First Quarter
Mar 27
Full

Hourly Weather History & Observations

Time (CST) Temp. Windchill Dew Point Humidity Pressure Visibility Wind Dir Wind Speed Gust Speed Precip Events Conditions
12:15 AM 18.5 °F 13.3 °F 14.9 °F 86% 30.23 in 10.0 mi West 3.5 mph - N/A   Overcast
12:35 AM 17.2 °F 11.9 °F 14.2 °F 88% 30.23 in 10.0 mi West 3.5 mph - N/A   Mostly Cloudy
12:55 AM 15.8 °F 8.6 °F 14.0 °F 93% 30.23 in 10.0 mi West 4.6 mph - N/A   Clear
1:15 AM 16.2 °F 9.0 °F 13.1 °F 88% 30.24 in 10.0 mi West 4.6 mph - N/A   Clear
1:55 AM 13.6 °F 7.7 °F 10.9 °F 89% 30.24 in 7.0 mi West 3.5 mph - N/A   Clear
2:15 AM 13.6 °F - 11.1 °F 90% 30.23 in 7.0 mi Calm Calm - N/A   Clear
2:35 AM 14.0 °F - 12.2 °F 93% 30.22 in 7.0 mi Calm Calm - N/A   Clear
2:55 AM 13.6 °F - 10.8 °F 88% 30.22 in 10.0 mi Calm Calm - N/A   Clear
3:15 AM 13.6 °F - 10.4 °F 87% 30.22 in 10.0 mi Calm Calm - N/A   Clear
3:35 AM 13.6 °F 4.6 °F 10.0 °F 86% 30.22 in 10.0 mi NW 5.8 mph - N/A   Clear
3:55 AM 13.6 °F 4.6 °F 9.5 °F 84% 30.22 in 10.0 mi NW 5.8 mph - N/A   Clear
4:15 AM 12.7 °F - 8.6 °F 84% 30.22 in 10.0 mi Calm Calm - N/A   Clear
4:35 AM 13.6 °F - 9.5 °F 84% 30.22 in 10.0 mi Calm Calm - N/A   Clear
4:55 AM 13.3 °F 7.3 °F 9.3 °F 84% 30.23 in 10.0 mi NW 3.5 mph - N/A   Clear
5:15 AM 13.5 °F 5.8 °F 9.3 °F 84% 30.23 in 10.0 mi NW 4.6 mph - N/A   Clear
5:35 AM 12.4 °F 4.6 °F 8.2 °F 83% 30.22 in 10.0 mi NW 4.6 mph - N/A   Clear
5:55 AM 13.6 °F 6.0 °F 9.3 °F 83% 30.23 in 10.0 mi NW 4.6 mph - N/A   Clear
6:15 AM 13.5 °F 4.4 °F 9.1 °F 83% 30.23 in 10.0 mi NW 5.8 mph - N/A   Clear
6:35 AM 10.4 °F 0.8 °F 6.8 °F 85% 30.23 in 10.0 mi NW 5.8 mph - N/A   Clear
6:55 AM 10.2 °F 0.6 °F 6.1 °F 83% 30.24 in 10.0 mi NW 5.8 mph - N/A   Clear
7:15 AM 9.3 °F 1.0 °F 5.2 °F 83% 30.25 in 10.0 mi NW 4.6 mph - N/A   Clear
7:35 AM 11.1 °F - 6.8 °F 83% 30.25 in 10.0 mi Calm Calm - N/A   Clear
7:55 AM 13.6 °F 7.7 °F 8.6 °F 80% 30.25 in 10.0 mi NNW 3.5 mph - N/A   Clear
8:15 AM 15.1 °F 7.7 °F 9.0 °F 77% 30.24 in 10.0 mi NNW 4.6 mph - N/A   Clear
8:35 AM 16.2 °F 7.6 °F 9.5 °F 75% 30.24 in 10.0 mi NW 5.8 mph - N/A   Clear
8:55 AM 17.4 °F 10.4 °F 10.4 °F 74% 30.24 in 10.0 mi NNW 4.6 mph - N/A   Clear
9:15 AM 18.5 °F 9.3 °F 10.8 °F 72% 30.24 in 10.0 mi NNW 6.9 mph - N/A   Clear
9:35 AM 18.9 °F 9.8 °F 10.8 °F 71% 30.24 in 10.0 mi NNW 6.9 mph - N/A   Clear
9:55 AM 19.2 °F 11.3 °F 11.1 °F 71% 30.24 in 10.0 mi NNW 5.8 mph - N/A   Clear
10:15 AM 20.3 °F 12.5 °F 12.0 °F 70% 30.24 in 10.0 mi NNW 5.8 mph - N/A   Clear
10:35 AM 21.2 °F 10.1 °F 12.7 °F 70% 30.25 in 10.0 mi NNW 10.4 mph - N/A   Clear
10:55 AM 21.2 °F 11.7 °F 12.2 °F 68% 30.25 in 10.0 mi NNW 8.1 mph - N/A   Clear
11:15 AM 21.6 °F 11.3 °F 12.6 °F 68% 30.25 in 10.0 mi NNW 9.2 mph - N/A   Clear
11:35 AM 21.7 °F 10.8 °F 12.7 °F 68% 30.25 in 10.0 mi NW 10.4 mph - N/A   Clear
11:55 AM 22.5 °F 11.7 °F 12.9 °F 67% 30.25 in 10.0 mi NNW 10.4 mph - N/A   Clear
12:15 PM 23.7 °F 14.7 °F 13.5 °F 65% 30.24 in 10.0 mi NNW 8.1 mph - N/A   Clear
12:35 PM 23.7 °F 14.7 °F 13.5 °F 65% 30.23 in 10.0 mi NNW 8.1 mph - N/A   Clear
12:55 PM 23.7 °F 14.7 °F 13.1 °F 64% 30.23 in 10.0 mi North 8.1 mph - N/A   Clear
1:15 PM 23.7 °F 14.7 °F 12.9 °F 63% 30.22 in 10.0 mi NNW 8.1 mph - N/A   Clear
1:35 PM 24.1 °F 16.0 °F 12.9 °F 62% 30.21 in 10.0 mi NNW 6.9 mph - N/A   Clear
1:55 PM 24.6 °F 15.1 °F 13.1 °F 62% 30.21 in 10.0 mi NNW 9.2 mph - N/A   Clear
2:15 PM 24.8 °F 15.3 °F 13.5 °F 62% 30.21 in 10.0 mi North 9.2 mph - N/A   Clear
2:35 PM 24.8 °F 19.1 °F 12.2 °F 59% 30.21 in 10.0 mi North 4.6 mph - N/A   Clear
2:55 PM 25.0 °F 18.1 °F 13.1 °F 61% 30.20 in 10.0 mi NNW 5.8 mph - N/A   Clear
3:15 PM 25.2 °F 17.3 °F 13.1 °F 60% 30.20 in 10.0 mi North 6.9 mph - N/A   Clear
3:35 PM 25.3 °F 19.7 °F 12.7 °F 59% 30.20 in 10.0 mi North 4.6 mph - N/A   Clear
3:55 PM 25.3 °F 19.7 °F 13.1 °F 60% 30.20 in 10.0 mi North 4.6 mph - N/A   Clear
4:15 PM 25.2 °F 18.3 °F 12.6 °F 59% 30.19 in 10.0 mi North 5.8 mph - N/A   Clear
4:35 PM 24.8 °F 20.5 °F 13.1 °F 61% 30.20 in 10.0 mi NNE 3.5 mph - N/A   Clear
4:55 PM 23.7 °F 19.3 °F 12.9 °F 63% 30.20 in 10.0 mi North 3.5 mph - N/A   Clear
5:15 PM 23.9 °F - 12.9 °F 63% 30.20 in 10.0 mi Calm Calm - N/A   Clear
5:35 PM 23.7 °F 19.3 °F 12.7 °F 63% 30.20 in 10.0 mi WSW 3.5 mph - N/A   Clear
5:55 PM 23.5 °F 17.6 °F 12.9 °F 64% 30.21 in 10.0 mi West 4.6 mph - N/A   Clear
6:35 PM 21.7 °F 17.0 °F 11.5 °F 65% 30.22 in 10.0 mi WSW 3.5 mph - N/A   Clear
6:55 PM 21.4 °F - 11.3 °F 65% 30.21 in 10.0 mi Calm Calm - N/A   Clear
7:15 PM 14.4 °F - 6.6 °F 71% 30.20 in 10.0 mi Calm Calm - N/A   Clear
7:35 PM 11.3 °F - 5.5 °F 78% 30.20 in 10.0 mi Calm Calm - N/A   Clear
7:55 PM 14.0 °F - 8.6 °F 79% 30.20 in 10.0 mi Calm Calm - N/A   Clear
8:15 PM 15.3 °F 7.9 °F 9.0 °F 76% 30.20 in 10.0 mi WSW 4.6 mph - N/A   Clear
8:35 PM 16.2 °F - 10.0 °F 77% 30.20 in 10.0 mi Calm Calm - N/A   Clear
8:55 PM 14.5 °F - 8.8 °F 78% 30.20 in 10.0 mi Calm Calm - N/A   Clear
9:15 PM 14.7 °F - 8.4 °F 76% 30.20 in 10.0 mi Calm Calm - N/A   Clear
9:35 PM 10.4 °F - 5.2 °F 79% 30.19 in 10.0 mi Calm Calm - N/A   Clear
9:55 PM 12.0 °F - 6.8 °F 80% 30.19 in 10.0 mi Calm Calm - N/A   Clear
10:15 PM 12.6 °F - 7.3 °F 80% 30.19 in 10.0 mi Calm Calm - N/A   Clear
10:35 PM 13.6 °F - 8.4 °F 80% 30.19 in 10.0 mi Calm Calm - N/A   Clear
10:55 PM 8.2 °F - 1.9 °F 76% 30.18 in 10.0 mi Calm Calm - N/A   Clear
11:15 PM 11.7 °F - 6.4 °F 80% 30.18 in 10.0 mi Calm Calm - N/A   Clear
11:35 PM 11.1 °F - 5.5 °F 78% 30.17 in 10.0 mi Calm Calm - N/A   Clear
11:55 PM 13.6 °F - 7.3 °F 76% 30.17 in 10.0 mi Calm Calm - N/A   Scattered Clouds